DW9919 Gulf Shores AL US current weather conditions

sailwx.info

Wind from 296 at 1 knots gusting 10

Air temperature 3.3° C
Dewpoint -2.6° C

Last reported at 2020-Jan-21 04:15 UTC.
Time now 2020-Jan-21 05:14 UTC

Location: N 30°17' W 087°31'.
View on Google Maps.

See reports from other nearby stations

  
Tides and Currents Weather Stations Pressure Air Temp Water Temp Dewpoint Dewpoint Depression Visibility Wind Speed Wind Dir Waves Ship Positions
date/time (UTC)wind fromknots sea level pressurealtimeterstation pressurevisibilityair tempwater tempwave heightnotes
2020-Jan-21 04:15 296 1 gusting 10 3.3
2020-Jan-21 04:00 339 2 gusting 6 3.3
2020-Jan-21 03:45 008 2 gusting 9 3.3
2020-Jan-21 03:30 343 4 gusting 9 3.9
2020-Jan-21 03:15 029 4 gusting 10 3.9
2020-Jan-21 03:00 333 4 gusting 9 3.9
2020-Jan-21 02:45 072 3 gusting 9 3.9
2020-Jan-21 02:31 032 3 gusting 9 4.4
2020-Jan-21 02:20 031 4 gusting 8 4.4
2020-Jan-21 02:01 001 2 gusting 10 4.4
2020-Jan-21 01:48 015 4 gusting 11 5.0
2020-Jan-21 01:32 350 4 gusting 11 5.0
2020-Jan-21 01:18 018 4 gusting 11 5.0
2020-Jan-21 01:01 314 5 gusting 8 5.0
2020-Jan-21 00:48 295 1 gusting 9 5.6
2020-Jan-21 00:32 319 2 gusting 9 5.6
2020-Jan-21 00:16 344 2 gusting 6 6.1
2020-Jan-21 00:02 317 3 gusting 6 6.1
2020-Jan-20 23:47 335 4 gusting 8 6.7
2020-Jan-20 23:32 053 4 gusting 11 7.2
2020-Jan-20 23:17 030 5 gusting 11 7.2
2020-Jan-20 23:01 032 6 gusting 13 7.8
2020-Jan-20 22:47 309 4 gusting 12 8.3
2020-Jan-20 22:32 331 6 gusting 13 8.3
2020-Jan-20 22:16 030 7 gusting 13 8.3
2020-Jan-20 22:02 331 6 gusting 13 8.9
2020-Jan-20 21:47 340 6 gusting 13 8.9
2020-Jan-20 21:31 342 7 gusting 15 8.9
2020-Jan-20 21:16 041 8 gusting 14 8.9
2020-Jan-20 21:01 010 6 gusting 15 8.9
2020-Jan-20 20:47 046 7 gusting 14 8.9
2020-Jan-20 20:33 022 6 gusting 15 8.9
2020-Jan-20 20:17 357 7 gusting 14 8.9
2020-Jan-20 20:01 022 5 gusting 12 8.9
2020-Jan-20 19:48 325 7 gusting 12 8.3
2020-Jan-20 19:31 099 6 gusting 12 8.3
2020-Jan-20 19:15 035 9 gusting 17 7.8
2020-Jan-20 19:01 333 7 gusting 13 7.8
2020-Jan-20 18:45 021 7 gusting 13 7.8
2020-Jan-20 18:31 302 5 gusting 13 7.2
2020-Jan-20 18:16 013 6 gusting 12 7.2
2020-Jan-20 18:00 353 5 gusting 13 7.2
2020-Jan-20 17:45 339 6 gusting 14 6.7
2020-Jan-20 17:16 316 5 gusting 15 6.1
2020-Jan-20 17:00 035 6 gusting 12 5.6
2020-Jan-20 16:46 017 5 gusting 10 5.6
2020-Jan-20 16:31 266 6 gusting 11 5.0
2020-Jan-20 16:15 022 7 gusting 14 4.4
2020-Jan-20 16:00 326 7 gusting 13 3.9
2020-Jan-20 15:46 332 7 gusting 16 3.3
2020-Jan-20 15:31 052 6 gusting 15 3.3
2020-Jan-20 15:16 001 6 gusting 13 2.8
2020-Jan-20 15:00 026 6 gusting 17 2.8
2020-Jan-20 14:46 053 6 gusting 13 2.8
2020-Jan-20 14:31 016 6 gusting 16 2.2
2020-Jan-20 14:15 011 6 gusting 16 2.2
2020-Jan-20 14:00 325 6 gusting 15 2.2
2020-Jan-20 13:46 060 6 gusting 12 1.7
2020-Jan-20 13:31 318 6 gusting 15 2.2
2020-Jan-20 13:15 017 7 gusting 14 1.7
2020-Jan-20 13:00 358 6 gusting 12 1.7
2020-Jan-20 12:49
2020-Jan-20 12:33
2020-Jan-20 12:16
2020-Jan-20 12:02
2020-Jan-20 11:47
2020-Jan-20 11:31
2020-Jan-20 11:16
2020-Jan-20 11:02
2020-Jan-20 10:45
2020-Jan-20 10:30
2020-Jan-20 10:15
2020-Jan-20 10:00
2020-Jan-20 09:45 316 6 gusting 15 3.3
2020-Jan-20 09:30 309 4 gusting 13 3.9
2020-Jan-20 09:15 311 6 gusting 12 3.9
2020-Jan-20 09:01 360 3 gusting 13 4.4
2020-Jan-20 08:47 335 6 gusting 14 4.4
2020-Jan-20 08:32 013 6 gusting 15 5.0
2020-Jan-20 08:16 038 5 gusting 12 5.0
2020-Jan-20 08:01 324 6 gusting 13 5.0
2020-Jan-20 07:47 045 6 gusting 13 5.0
2020-Jan-20 07:31 357 6 gusting 13 5.6
2020-Jan-20 07:16 048 6 gusting 13 5.6
2020-Jan-20 07:01 317 6 gusting 12 5.6
2020-Jan-20 06:46 008 6 gusting 13 5.6
2020-Jan-20 06:31 018 5 gusting 12 5.6
2020-Jan-20 06:15 017 7 gusting 14 6.1
2020-Jan-20 06:00 343 6 gusting 13 6.1
2020-Jan-20 05:45 308 4 gusting 11 6.1
2020-Jan-20 05:30 022 4 gusting 10 6.1
2020-Jan-20 05:15 043 3 gusting 10 6.1
2020-Jan-20 05:00 344 5 gusting 11 6.7
2020-Jan-20 04:45 342 3 gusting 10 6.7
2020-Jan-20 04:31 337 4 gusting 11 6.7
2020-Jan-20 04:15 021 4 gusting 9 6.7
2020-Jan-20 04:00 302 3 gusting 10 6.7
2020-Jan-20 03:45 325 4 gusting 9 6.7
2020-Jan-20 03:30 008 5 gusting 10 7.2
2020-Jan-20 03:18 359 4 gusting 11 7.8
2020-Jan-20 03:02 009 6 gusting 13 7.8
2020-Jan-20 02:47 356 6 gusting 13 7.8
2020-Jan-20 02:33 069 5 gusting 12 7.8
2020-Jan-20 02:17 295 6 gusting 10 7.8
2020-Jan-20 02:02 284 6 gusting 12 8.3
2020-Jan-20 01:47 025 5 gusting 13 8.3
2020-Jan-20 01:33 050 6 gusting 13 8.3
2020-Jan-20 01:17 016 5 gusting 12 8.3
2020-Jan-20 01:01 335 6 gusting 12 8.3
2020-Jan-20 00:45 064 6 gusting 12 8.9
2020-Jan-20 00:31 351 5 gusting 10 8.9
2020-Jan-20 00:15 328 5 gusting 9 8.9
2020-Jan-20 00:01 354 5 gusting 12 9.4
2020-Jan-19 23:46 330 5 gusting 10 9.4
2020-Jan-19 23:31 335 5 gusting 11 9.4
2020-Jan-19 23:15 027 2 gusting 7 10.0
2020-Jan-19 23:00 313 4 gusting 13 10.6
2020-Jan-19 22:45 019 5 gusting 15 11.1
2020-Jan-19 22:30 351 6 gusting 13 11.1
2020-Jan-19 22:16 016 6 gusting 14 11.7
2020-Jan-19 22:01 033 5 gusting 14 12.2
2020-Jan-19 21:45 036 6 gusting 15 11.7
2020-Jan-19 21:31 008 7 gusting 13 12.2
2020-Jan-19 21:16 054 6 gusting 16 12.2
2020-Jan-19 21:00 347 6 gusting 13 11.7
2020-Jan-19 20:45 351 6 gusting 13 11.1
2020-Jan-19 20:30 051 5 gusting 11 10.6
2020-Jan-19 20:15 085 6 gusting 13 10.6
2020-Jan-19 20:01 017 7 gusting 13 10.0
2020-Jan-19 19:45 315 7 gusting 13 10.0
2020-Jan-19 19:30 001 7 gusting 14 10.0
2020-Jan-19 19:15 330 8 gusting 16 10.0
2020-Jan-19 19:00 032 7 gusting 17 10.0
2020-Jan-19 18:45 026 6 gusting 13 10.0
2020-Jan-19 18:30 290 7 gusting 15 10.0
2020-Jan-19 18:15 043 7 gusting 16 10.0
2020-Jan-19 18:00 340 6 gusting 16 10.0
2020-Jan-19 17:45 340 8 gusting 18 10.0
2020-Jan-19 17:30 340 7 gusting 15 9.4
2020-Jan-19 17:15 017 6 gusting 19 8.9
2020-Jan-19 17:00 321 11 gusting 20 8.9
2020-Jan-19 16:48 349 10 gusting 19 8.9
2020-Jan-19 16:33 033 10 gusting 19 8.9
2020-Jan-19 16:16 019 7 gusting 15 8.9
2020-Jan-19 16:02 040 9 gusting 19 8.9
2020-Jan-19 15:46 049 9 gusting 17 9.4
2020-Jan-19 15:33 022 6 gusting 15 9.4
2020-Jan-19 15:18 034 9 gusting 19 9.4
2020-Jan-19 15:00 025 8 gusting 16 10.0
2020-Jan-19 14:46 016 7 gusting 16 10.0
2020-Jan-19 14:31 356 8 gusting 17 10.6
2020-Jan-19 14:16 311 10 gusting 17 10.6
2020-Jan-19 14:00 010 7 gusting 15 11.1
2020-Jan-19 13:45 360 11 gusting 18 11.1
2020-Jan-19 13:32 283 5 gusting 13 11.7
2020-Jan-19 13:15
2020-Jan-19 13:01 334 6 gusting 15 12.8
2020-Jan-19 12:45 360 8 gusting 16 13.3
2020-Jan-19 12:30 359 5 gusting 16 13.3
2020-Jan-19 12:17
2020-Jan-19 12:02
2020-Jan-19 11:46
2020-Jan-19 11:31
2020-Jan-19 11:17
2020-Jan-19 11:01
2020-Jan-19 10:47
2020-Jan-19 10:31
2020-Jan-19 10:15
2020-Jan-19 10:01
2020-Jan-19 09:45
2020-Jan-19 09:30
2020-Jan-19 09:15
2020-Jan-19 09:00 020 3 gusting 10 17.8
2020-Jan-19 08:47 331 4 gusting 8 18.3
2020-Jan-19 08:31 302 2 gusting 6 18.9
2020-Jan-19 08:17 306 1 gusting 4 18.9
2020-Jan-19 08:02 264 0 gusting 5 18.9
2020-Jan-19 07:48 283 0 gusting 6 18.9
2020-Jan-19 07:33 257 1 gusting 4 18.9
2020-Jan-19 07:18 256 18.9
2020-Jan-19 07:02 243 1 gusting 3 18.9
2020-Jan-19 06:46 239 2 gusting 6 18.9
2020-Jan-19 06:33 231 0 gusting 6 18.9
2020-Jan-19 06:16 228 2 gusting 6 18.9
2020-Jan-19 06:01 242 2 gusting 6 18.9
2020-Jan-19 05:47 232 1 gusting 6 18.9
2020-Jan-19 05:30 151 0 gusting 7 18.9
2020-Jan-19 05:16 243 3 gusting 6 18.9
2020-Jan-19 05:01 262 2 gusting 5 18.9